FW5359 Weather Reports


Display with metric or nautical units.
time (UTC)temp
F
wind
direction
speed
MPH
gust
MPH
rain 1hr
in
rain 24hr
in
rain mn
in
humidity
%
barometer
mb
20260505022606 74 191 1.0 4.0 0.00 0.00 0.00 74 1011.0
20260505022100 74 191 0.0 4.0 0.00 0.00 0.00 74 1010.9
20260505021553 74 190 0.0 4.0 0.00 0.00 0.00 74 1010.9
20260505021047 75 190 0.0 1.0 0.00 0.00 0.00 74 1010.9
20260505020541 75 190 0.0 3.0 0.00 0.00 0.00 73 1010.9
20260505020036 75 190 1.0 4.0 0.00 0.00 0.00 73 1010.7
20260505015530 75 190 1.0 4.0 0.00 0.00 0.00 72 1010.6
20260505015024 75 190 1.0 5.0 0.00 0.00 0.00 72 1010.7
20260505014517 75 190 1.0 5.0 0.00 0.00 0.00 72 1010.7
20260505014011 76 189 1.0 8.0 0.00 0.00 0.00 72 1010.6
20260505013736 76 187 2.0 8.0 0.00 0.00 0.00 71 1010.6
20260505013231 76 225 2.0 5.0 0.00 0.00 0.00 71 1010.5
20260505012725 76 161 1.0 5.0 0.00 0.00 0.00 71 1010.6
20260505012219 76 157 1.0 6.0 0.00 0.00 0.00 71 1010.6
20260505011714 77 158 2.0 6.0 0.00 0.00 0.00 70 1010.5
20260505010936 77 232 1.0 6.0 0.00 0.00 0.00 70 1010.5
20260505010429 77 192 1.0 5.0 0.00 0.00 0.00 69 1010.4
20260505005923 77 202 2.0 10.0 0.00 0.00 0.00 69 1010.5
20260505005649 78 193 2.0 10.0 0.00 0.00 0.00 69 1010.6
20260505004915 78 204 2.0 7.0 0.00 0.00 0.00 69 1010.6
20260505004415 78 281 2.0 7.0 0.00 0.00 0.00 68 1010.5
20260505003915 78 242 2.0 7.0 0.00 0.00 0.00 68 1010.4
20260505003646 78 223 2.0 7.0 0.00 0.00 0.00 67 1010.2
20260505002915 79 181 2.0 8.0 0.00 0.00 0.00 67 1010.1
20260505002647 79 285 2.0 8.0 0.00 0.00 0.00 67 1010.1
20260505001915 79 212 2.0 6.0 0.00 0.00 0.00 66 1010.2
20260505001415 79 159 2.0 8.0 0.00 0.00 0.00 66 1010.3
20260505000915 79 221 2.0 8.0 0.00 0.00 0.00 66 1010.3
20260505000418 80 161 2.0 9.0 0.00 0.00 0.00 66 1010.4
20260504235913 80 221 3.0 12.0 0.00 0.00 0.00 66 1010.4
20260504235413 80 287 4.0 12.0 0.00 0.00 0.00 65 1010.4
20260504234913 80 108 3.0 11.0 0.00 0.00 0.00 65 1010.4
20260504234643 80 131 3.0 7.0 0.00 0.00 0.00 66 1010.6
20260504233913 80 207 3.0 10.0 0.00 0.00 0.00 66 1010.6
20260504233411 80 158 3.0 10.0 0.00 0.00 0.00 65 1010.6
20260504232911 80 150 3.0 9.0 0.00 0.00 0.00 65 1010.7
20260504232409 80 198 3.0 10.0 0.00 0.00 0.00 66 1010.8
20260504232141 80 184 3.0 10.0 0.00 0.00 0.00 65 1010.8
20260504231643 79 152 3.0 10.0 0.00 0.00 0.00 66 1010.9
20260504230909 79 191 3.0 10.0 0.00 0.00 0.00 66 1011.0
20260504230409 79 163 3.0 9.0 0.00 0.00 0.00 66 1011.1
20260504225908 80 167 4.0 10.0 0.00 0.00 0.00 66 1011.1
20260504225409 80 173 4.0 10.0 0.00 0.00 0.00 65 1011.2
20260504224909 80 170 3.0 10.0 0.00 0.00 0.00 65 1011.2
20260504224409 80 211 2.0 8.0 0.00 0.00 0.00 65 1011.3
20260504223909 80 283 3.0 10.0 0.00 0.00 0.00 65 1011.5
20260504223639 80 192 3.0 10.0 0.00 0.00 0.00 65 1011.5
20260504222909 80 130 3.0 8.0 0.00 0.00 0.00 65 1011.6
20260504222409 79 180 3.0 11.0 0.00 0.00 0.00 66 1011.5
20260504221914 79 131 4.0 11.0 0.00 0.00 0.00 65 1011.5
20260504221409 80 163 4.0 11.0 0.00 0.00 0.00 64 1011.5
20260504220908 80 266 2.0 8.0 0.00 0.00 0.00 65 1011.5
20260504220408 80 195 2.0 8.0 0.00 0.00 0.00 64 1011.5
20260504215905 80 181 3.0 10.0 0.00 0.00 0.00 65 1011.6
20260504215359 80 229 4.0 10.0 0.00 0.00 0.00 65 1011.5
20260504214854 80 157 3.0 9.0 0.00 0.00 0.00 66 1011.6
20260504214624 79 179 3.0 9.0 0.00 0.00 0.00 66 1011.6
20260504213852 79 121 2.0 8.0 0.00 0.00 0.00 66 1011.7
20260504213350 79 175 2.0 10.0 0.00 0.00 0.00 67 1011.8
20260504212851 79 128 4.0 12.0 0.00 0.00 0.00 67 1011.8
20260504212351 79 169 5.0 12.0 0.00 0.00 0.00 67 1011.9
20260504211849 79 136 4.0 11.0 0.00 0.00 0.00 67 1012.0
20260504211349 78 155 3.0 12.0 0.00 0.00 0.00 67 1012.1
20260504210849 78 190 3.0 12.0 0.00 0.00 0.00 67 1012.4
20260504210349 79 198 3.0 8.0 0.00 0.00 0.00 67 1012.4
20260504205848 79 254 3.0 10.0 0.00 0.00 0.00 67 1012.4
20260504205346 78 172 3.0 13.0 0.00 0.00 0.00 67 1012.7
20260504204846 78 248 4.0 13.0 0.00 0.00 0.00 67 1012.8
20260504204346 78 232 3.0 11.0 0.00 0.00 0.00 67 1012.7
20260504203847 79 235 3.0 8.0 0.00 0.00 0.00 67 1012.8
20260504203349 79 209 3.0 7.0 0.00 0.00 0.00 67 1012.9
20260504202845 79 252 3.0 8.0 0.00 0.00 0.00 67 1013.0
20260504202345 79 269 3.0 10.0 0.00 0.00 0.00 67 1013.1
20260504201844 79 197 3.0 10.0 0.00 0.00 0.00 66 1013.1
20260504201338 79 204 3.0 9.0 0.00 0.00 0.00 67 1013.2
20260504200832 78 250 2.0 7.0 0.00 0.00 0.00 67 1013.2
20260504200325 78 190 2.0 7.0 0.00 0.00 0.00 68 1013.3
20260504195819 78 190 2.0 9.0 0.00 0.00 0.00 68 1013.5
20260504195314 78 205 2.0 9.0 0.00 0.00 0.00 68 1013.6
20260504195038 78 234 2.0 9.0 0.00 0.00 0.00 68 1013.6
20260504194302 78 163 3.0 9.0 0.00 0.00 0.00 68 1013.5
20260504194026 78 213 3.0 9.0 0.00 0.00 0.00 66 1013.7
20260504193520 78 171 3.0 8.0 0.00 0.00 0.00 66 1013.7
20260504192744 78 169 3.0 9.0 0.00 0.00 0.00 68 1013.7
20260504192238 78 236 3.0 9.0 0.00 0.00 0.00 67 1013.7
20260504191732 78 202 3.0 9.0 0.00 0.00 0.00 66 1013.8
20260504191226 79 219 2.0 10.0 0.00 0.00 0.00 65 1013.9
20260504190214 79 296 2.0 8.0 0.00 0.00 0.00 67 1013.9
20260504185708 78 219 3.0 8.0 0.00 0.00 0.00 68 1014.1
20260504185201 77 205 3.0 8.0 0.00 0.00 0.00 68 1014.1
20260504184422 78 225 3.0 8.0 0.00 0.00 0.00 68 1014.1
20260504183916 77 227 3.0 11.0 0.00 0.00 0.00 68 1014.2
20260504183410 77 160 4.0 11.0 0.00 0.00 0.00 69 1014.3
20260504182632 78 207 3.0 9.0 0.00 0.00 0.00 67 1014.6
20260504182126 78 207 3.0 9.0 0.00 0.00 0.00 68 1014.5
20260504181619 78 148 3.0 9.0 0.00 0.00 0.00 68 1014.5
20260504181114 77 235 2.0 9.0 0.00 0.00 0.00 68 1014.6
20260504180608 77 240 2.0 9.0 0.00 0.00 0.00 69 1014.7
20260504175556 77 255 3.0 9.0 0.00 0.00 0.00 68 1014.8
20260504175049 77 223 3.0 16.0 0.00 0.00 0.00 69 1014.8
20260504174544 77 173 3.0 16.0 0.00 0.00 0.00 69 1014.9
20260504174038 77 207 3.0 9.0 0.00 0.00 0.00 68 1014.9
20260504173532 77 210 3.0 11.0 0.00 0.00 0.00 69 1015.0
20260504173026 76 215 3.0 11.0 0.00 0.00 0.00 70 1015.0
20260504172753 76 215 3.0 11.0 0.00 0.00 0.00 71 1015.0
20260504172022 76 175 3.0 11.0 0.00 0.00 0.00 70 1015.0
20260504171522 75 248 3.0 9.0 0.00 0.00 0.00 70 1015.3
20260504171022 75 196 2.0 8.0 0.00 0.00 0.00 71 1015.2
20260504170522 74 219 2.0 9.0 0.00 0.00 0.00 73 1015.3
20260504160243 72 199 3.0 9.0 0.00 0.00 0.00 75 1015.7
20260504151009 68 321 2.0 6.0 0.00 0.00 0.00 82 1016.3
20260504150509 67 204 2.0 9.0 0.00 0.00 0.00 82 1016.2
20260504141219 65 177 1.0 7.0 0.00 0.00 0.00 83 1016.2
20260504140443 65 203 1.0 5.0 0.00 0.00 0.00 83 1016.1
20260504130602 63 180 1.0 3.0 0.00 0.00 0.00 83 1016.1
20260504120218 61 178 0.0 0.0 0.00 0.00 0.00 85 1015.8
20260504110613 62 178 0.0 3.0 0.00 0.00 0.00 82 1015.5
20260504110107 62 178 0.0 3.0 0.00 0.00 0.00 82 1015.6
20260504100500 62 178 1.0 4.0 0.00 0.00 0.00 81 1016.1
20260504081943 64 211 0.0 3.0 0.00 0.00 0.00 78 1016.6
20260504081444 64 211 0.0 3.0 0.00 0.00 0.00 78 1016.6
20260504080944 64 211 1.0 7.0 0.00 0.00 0.00 78 1016.6
20260504080441 64 211 1.0 7.0 0.00 0.00 0.00 78 1016.6
20260504050255 67 216 2.0 12.0 0.00 0.00 0.00 69 1018.7
20260504045754 67 145 2.0 12.0 0.00 0.00 0.00 68 1018.6
20260504045525 67 115 2.0 8.0 0.00 0.00 0.00 68 1018.5
20260504044754 67 153 3.0 10.0 0.00 0.00 0.00 67 1018.4
20260504044253 67 148 3.0 10.0 0.00 0.00 0.00 67 1018.5
20260504043754 67 157 2.0 9.0 0.00 0.00 0.00 66 1018.5
20260504043255 68 159 2.0 12.0 0.00 0.00 0.00 66 1018.6
20260504043024 68 160 2.0 12.0 0.00 0.00 0.00 65 1018.7
20260504042254 68 153 2.0 9.0 0.00 0.00 0.00 65 1018.6
20260504041754 68 182 1.0 9.0 0.00 0.00 0.00 64 1018.5
20260504041252 68 141 1.0 9.0 0.00 0.00 0.00 64 1018.5
20260504040752 69 161 2.0 10.0 0.00 0.00 0.00 63 1018.6
20260504040252 69 154 2.0 10.0 0.00 0.00 0.00 63 1018.5
20260504035747 69 188 2.0 8.0 0.00 0.00 0.00 63 1018.7
20260504035249 69 152 1.0 7.0 0.00 0.00 0.00 63 1018.6
20260504034751 69 151 1.0 7.0 0.00 0.00 0.00 63 1018.7
20260504034247 68 161 1.0 7.0 0.00 0.00 0.00 63 1018.6
20260504033748 68 173 1.0 7.0 0.00 0.00 0.00 62 1018.6
20260504033251 68 185 0.0 4.0 0.00 0.00 0.00 62 1018.6
20260504032746 68 185 1.0 4.0 0.00 0.00 0.00 61 1018.6
20260504032516 68 185 0.0 4.0 0.00 0.00 0.00 61 1018.6
20260504031745 67 186 0.0 4.0 0.00 0.00 0.00 60 1018.5
20260504031240 67 186 0.0 3.0 0.00 0.00 0.00 60 1018.5
20260504030733 67 186 0.0 3.0 0.00 0.00 0.00 59 1018.5
20260504030227 67 186 0.0 0.0 0.00 0.00 0.00 59 1018.4
20260504025721 67 186 0.0 0.0 0.00 0.00 0.00 59 1018.4
20260504025214 67 186 0.0 0.0 0.00 0.00 0.00 58 1018.4
20260504024709 68 186 0.0 0.0 0.00 0.00 0.00 60 1018.3
20260504024204 68 186 0.0 0.0 0.00 0.00 0.00 57 1018.2
20260504023657 68 186 0.0 0.0 0.00 0.00 0.00 56 1018.2
20260504023151 68 186 0.0 0.0 0.00 0.00 0.00 56 1018.3